Miscellaneous Local Product
Issued by NWS Hastings, NE

Home | Current Version | Previous Version | Text Only | Print | Product List | Glossary Off
Versions: 1 2 3 4 5 6 7 8 9 10 11 12 13 14 15 16 17 18 19 20 21 22 23 24 25 26 27 28 29 30 31 32 33 34 35 36 37 38 39 40 41 42 43 44 45 46 47 48 49 50

567
AXUS43 KGID 232202
MISGRI

GID CWA HOURLY WEATHER ROUNDUP
NATIONAL WEATHER SERVICE HASTINGS NE
500 PM CDT FRI JUN 23 2017

NOTE: "FAIR" INDICATES FEW OR NO CLOUDS BELOW 12,000 FEET WITH NO
SIGNIFICANT WEATHER AND/OR OBSTRUCTIONS TO VISIBILITY.

...SOUTH CENTRAL NEBRASKA...

CITY           SKY/WX    TMP DP  RH WIND       PRES   REMARKS
GRAND ISLAND   MOSUNNY   77  46  33 N21G26    30.06S
HASTINGS       MOSUNNY   77  44  30 N14G24    30.07F
KEARNEY        MOSUNNY   77  43  29 NW17G24   30.08S
ORD            PTSUNNY   73  43  33 NW16      30.07F
YORK           PTSUNNY   75  48  38 N13       30.04S
AURORA         MOSUNNY   74  45  35 N16G24    30.05S
LEXINGTON      MOSUNNY   76  43  31 NW13G21   30.09F
HOLDREGE       SUNNY     75  42  30 NW12G20   30.08S
HEBRON         MOSUNNY   79  46  31 NW14G22   30.03F

...NEBRASKA PANHANDLE...

CITY           SKY/WX    TMP DP  RH WIND       PRES   REMARKS
CHADRON        SUNNY     73  28  18 NW17G26   30.14S
ALLIANCE       SUNNY     73  29  19 NW16      30.16S
SCOTTSBLUFF    SUNNY     74  34  23 NW13G22   30.17F
SIDNEY         SUNNY     72  37  28 NW8       30.20F

...WESTERN AND NORTH CENTRAL NEBRASKA...

CITY           SKY/WX    TMP DP  RH WIND       PRES   REMARKS
VALENTINE      MOSUNNY   74  33  22 N18G26    30.11F
AINSWORTH      PTSUNNY   70  40  32 N16G28    30.11F
ONEILL         PTSUNNY   71  42  35 NW18G24   30.07S
BROKEN BOW     MOSUNNY   73  43  33 N14G23    30.10S
IMPERIAL       PTSUNNY   75  33  21 W10       30.15F
NORTH PLATTE   SUNNY     78  40  25 NW17G25   30.11S
MCCOOK         PTSUNNY   80  38  22 NW15      30.10F

...EASTERN NEBRASKA...

CITY           SKY/WX    TMP DP  RH WIND       PRES   REMARKS
NORFOLK        PTSUNNY   71  47  42 NW16      30.03R
SO SIOUX CITY  PTSUNNY   74  51  44 NW17G28   29.98S
TEKAMAH        MOSUNNY   74  46  36 NW22G28   29.98S
COLUMBUS       PTSUNNY   74  49  41 NW18G30   30.04
ALBION         PTSUNNY   71  44  38 NW16G23   30.06S
OMAHA EPPLEY   PTSUNNY   75  49  39 NW20G26   29.97S
OFFUTT AFB     PTSUNNY   76  51  42 NW12G20   29.98F
MILLARD        PTSUNNY   75  51  42 NW12G23   29.99S
LINCOLN        PTSUNNY   77  50  38 NW14G22   30.02S
NEBRASKA CITY  MOSUNNY   74  54  50 N16G22    30.00F
BEATRICE       MOSUNNY   77  52  41 N16G23    30.02S
FALLS CITY     SUNNY     74  54  49 NW16G23   29.98F

...NORTHERN KANSAS...

CITY           SKY/WX    TMP DP  RH WIND       PRES   REMARKS
GOODLAND       CLOUDY    70  49  47 W7        30.17F
HILL CITY      MOSUNNY   82  47  29 NW9       30.08F
NORTON         CLEAR     81  34  18 NW7G20    30.08
PHILLIPSBURG   MOSUNNY   82  43  24 N8G20     30.06F
SMITH CENTER   SUNNY     75  46  35 NW13      30.07F
HAYS           CLOUDY    76  48  37 N6        30.09F
RUSSELL        SUNNY     79  46  31 VRB7G16   30.06F
CONCORDIA      SUNNY     79  49  34 NW8G17    30.04F
SALINA         SUNNY     83  45  26 N9        30.03F
TOPEKA         MOSUNNY   79  55  43 NW10      29.99S



USA.gov is the U.S. government's official web portal to all federal, state and local government web resources and services.